Wind_Speed
63 63 62 60 57 54 53 52 50 46 41 38 36 33 32 31 30 31 33 34 32 31 30 30 32 36 39 39 38 38 36 34 32 29 28 26 25 23 21 19 18 18 19 19 17 15 15 15 16 16 16 16 16 16 16 16 17 16 15 15 15 15 15 16 17 18 18 19 19 19 20 20 20 21 21 22 23 23 24 25 26 26 27 27 28 28
65 64 62 59 57 55 53 51 48 45 42 41 40 37 36 35 34 34 33 32 29 27 26 29 30 33 38 39 39 39 37 33 31 31 30 29 28 26 23 21 19 20 21 19 16 15 16 16 16 16 16 17 17 17 17 17 18 16 15 16 16 16 17 17 17 17 18 18 19 19 19 20 21 21 22 23 24 25 26 27 28 28 28 28 29 30
68 65 62 60 59 56 54 52 48 44 41 41 42 41 39 37 36 34 31 29 27 25 25 26 27 30 36 38 40 39 36 32 32 32 31 31 29 26 24 23 22 22 22 20 18 18 18 18 18 17 16 17 17 17 17 18 17 16 17 18 18 18 18 18 17 17 18 19 18 18 19 20 21 22 23 24 25 26 28 29 29 29 29 30 30 32
71 66 64 62 60 58 56 54 49 44 42 43 45 45 42 39 37 33 30 29 27 25 24 24 24 27 33 36 37 37 36 34 34 33 31 31 28 25 24 25 26 25 23 22 20 20 21 20 19 18 18 18 18 18 17 18 18 18 19 20 20 19 17 17 17 18 18 18 18 18 19 20 21 22 23 24 26 28 28 29 30 30 30 31 31 33
72 68 66 64 62 61 59 55 51 47 46 44 46 47 43 39 37 34 33 32 30 28 25 25 25 25 29 33 34 36 38 36 35 33 30 29 26 25 26 27 26 25 25 24 22 22 22 22 21 20 21 20 19 18 18 19 19 19 19 20 19 17 17 17 17 17 17 16 17 18 19 20 21 22 23 24 26 27 28 28 29 30 30 31 32 33
73 70 66 64 64 63 62 59 54 51 49 44 43 44 42 40 39 38 37 35 32 30 27 26 26 23 26 29 29 34 38 36 35 34 30 28 27 26 26 26 26 25 25 25 24 23 22 21 21 21 22 21 20 20 21 22 21 20 19 19 18 17 17 17 17 17 16 16 18 18 19 20 20 21 22 24 25 26 26 27 28 29 30 30 31 32
75 71 65 63 63 62 63 61 56 50 49 46 41 40 41 42 42 41 39 37 35 32 29 29 27 23 23 24 26 31 34 33 35 34 30 28 28 26 25 26 27 26 25 26 25 24 22 21 21 21 21 21 21 22 24 24 22 21 20 19 19 19 18 18 18 18 18 19 19 20 20 20 20 21 23 24 24 25 25 26 27 29 30 31 31 32
77 72 66 64 63 63 64 62 57 50 48 47 41 40 41 41 41 42 40 39 38 35 33 31 28 25 22 20 24 27 29 31 31 30 29 30 29 27 26 27 29 29 28 29 28 26 24 24 24 23 23 23 22 24 25 23 22 22 21 21 20 20 19 20 20 21 21 21 22 22 22 22 22 23 24 25 25 25 26 27 28 30 31 32 33 33
76 72 68 65 65 66 65 63 58 52 49 46 41 41 42 40 40 42 43 42 41 38 36 32 29 27 22 19 22 25 24 25 25 26 27 29 29 27 27 27 29 31 31 31 29 27 25 25 26 26 25 24 24 25 24 22 22 21 21 20 20 20 21 21 21 21 22 23 23 24 23 24 24 25 26 27 27 27 28 29 30 31 32 33 34 35
76 72 67 65 66 66 66 64 60 56 54 48 42 41 42 43 42 43 44 44 43 41 37 32 31 29 22 20 22 22 20 20 21 23 25 26 27 26 27 27 27 29 31 30 29 27 25 25 25 26 25 25 25 25 24 23 22 21 21 21 21 21 22 22 22 22 23 24 24 24 24 25 26 26 27 28 28 29 30 30 31 32 33 34 35 36
73 69 67 65 64 64 63 62 60 57 55 52 47 44 44 45 46 46 45 44 45 44 39 35 33 31 24 21 21 19 17 18 20 22 24 25 25 25 25 25 24 25 27 28 28 26 25 24 24 24 23 23 24 25 24 23 23 22 23 22 22 22 23 24 24 24 25 25 25 25 26 26 27 28 28 28 29 30 30 31 31 32 33 34 35 37
71 67 65 65 64 63 61 59 59 58 55 54 53 50 48 48 48 50 48 46 47 46 42 39 35 33 24 19 20 19 16 19 21 21 22 22 22 22 22 22 21 22 23 24 24 23 23 22 21 21 20 20 22 21 21 22 22 22 21 20 20 21 22 22 22 23 23 23 23 23 24 25 25 26 26 27 27 29 29 30 31 32 33 34 35 37
72 70 65 63 64 63 61 59 59 60 59 56 55 54 53 53 53 54 53 50 49 47 44 40 37 34 22 17 20 20 18 21 22 20 20 18 18 19 20 20 20 20 20 21 21 21 21 19 18 17 16 16 17 16 16 16 16 15 14 14 14 16 16 16 16 16 17 17 17 18 19 20 21 21 22 24 25 26 28 29 30 32 33 34 36 37
71 72 70 67 66 63 60 61 62 63 63 61 59 56 55 56 58 58 57 54 51 48 45 39 37 34 24 20 22 22 22 23 21 19 19 17 17 16 16 17 18 19 19 19 19 18 17 16 14 13 13 13 12 12 11 11 10 10 10 10 11 12 12 12 12 12 13 13 15 16 17 18 19 20 22 23 25 26 28 30 32 33 34 35 36 38
75 75 75 72 69 67 62 62 61 61 61 62 61 59 56 54 53 54 55 53 50 47 44 40 39 35 27 23 23 23 24 24 21 20 20 18 17 16 16 17 17 18 18 18 17 16 15 15 14 13 13 12 11 11 11 11 11 11 11 11 12 13 13 12 12 12 13 14 16 17 18 19 20 21 23 24 26 28 30 32 34 35 36 37 37 38
75 75 75 74 72 69 65 64 62 60 60 61 62 63 60 54 49 49 51 50 49 48 46 44 42 37 29 26 26 26 26 24 23 22 21 20 19 18 18 19 18 19 18 18 17 16 16 16 15 14 14 13 13 13 13 13 14 13 14 14 14 14 14 13 13 14 15 16 17 18 19 20 21 23 24 26 28 31 32 34 35 37 38 38 39 40
75 73 72 72 71 68 65 65 64 63 63 63 64 65 64 60 56 53 52 51 50 51 50 47 44 40 34 30 30 30 28 26 25 24 24 24 22 21 21 21 20 20 19 19 19 18 18 18 18 17 16 16 15 15 16 16 16 16 16 16 15 15 15 15 15 16 18 19 20 21 21 22 23 24 26 28 30 32 33 35 36 38 39 40 40 41
75 74 72 71 70 67 65 64 62 62 63 64 64 63 62 63 63 59 57 55 53 53 52 50 47 43 39 34 31 32 30 28 29 28 27 27 26 25 25 23 22 21 20 20 20 20 20 20 20 20 19 18 18 18 19 19 18 18 18 18 17 17 17 18 19 20 22 23 23 23 23 24 25 26 28 30 31 32 34 35 36 37 39 40 41 42
74 73 72 72 71 68 65 65 64 62 62 62 61 59 58 61 62 63 63 61 58 56 54 53 50 46 42 36 30 30 31 30 31 31 30 29 28 28 27 26 25 24 23 22 21 21 22 22 22 21 21 21 21 21 21 21 21 21 21 20 20 20 20 21 23 24 25 26 25 25 25 26 27 29 30 31 32 33 34 35 36 37 39 40 40 41
75 72 72 71 70 68 66 66 68 67 66 65 63 60 58 58 60 61 62 62 60 58 56 55 53 49 44 37 31 31 31 31 32 32 32 30 29 28 27 27 27 26 25 24 23 23 23 24 24 23 24 24 24 24 23 24 24 23 23 23 23 23 23 25 26 28 28 28 28 27 27 28 30 31 32 33 34 34 35 36 36 37 39 39 39 39
78 74 72 71 69 69 68 67 68 68 68 69 69 67 64 63 64 63 62 63 62 61 59 58 56 52 44 37 34 33 33 34 34 32 31 30 29 28 28 28 28 27 26 25 25 25 25 26 26 26 26 26 26 26 26 26 25 25 25 25 25 25 26 28 30 31 31 30 29 29 30 31 32 33 34 35 36 36 36 36 37 37 38 38 38 38
81 77 74 73 71 70 69 67 65 64 64 65 66 66 63 63 63 62 62 63 63 62 61 59 58 53 44 36 34 33 33 35 35 33 31 31 30 30 30 30 29 28 28 28 28 28 28 28 29 28 29 28 28 28 27 27 27 26 26 27 27 29 30 32 32 32 32 32 31 32 33 34 35 36 37 37 37 37 37 37 37 37 38 38 38 38
76 79 76 74 72 69 67 66 65 63 63 63 62 61 59 58 59 59 59 59 59 59 58 57 58 55 47 38 35 35 34 35 36 36 35 33 33 33 33 32 31 30 29 29 29 30 30 31 31 31 31 30 29 29 29 28 28 28 28 29 31 32 33 34 34 34 33 33 33 34 35 36 37 38 39 39 38 38 38 37 37 38 38 38 38 38
72 79 79 75 73 71 69 67 66 65 65 65 64 63 61 60 59 58 57 56 56 57 57 58 59 59 53 44 38 37 37 36 36 36 36 35 34 34 34 33 32 31 30 29 30 31 31 32 32 32 32 31 31 31 30 30 30 30 31 32 33 34 34 34 35 35 35 35 36 36 37 39 39 40 40 39 39 38 38 38 38 38 38 38 37 37
68 76 80 79 76 74 72 69 68 68 68 68 66 65 64 62 60 59 59 60 61 61 60 61 62 60 57 52 46 42 40 38 37 35 34 34 34 34 34 33 32 32 32 32 33 33 33 34 34 33 33 32 32 32 31 31 32 32 33 34 34 34 35 35 36 36 37 37 38 38 39 40 41 42 41 39 39 38 38 38 38 38 38 37 37 35
68 75 78 81 82 81 80 78 76 74 72 71 70 69 66 64 63 62 62 63 65 64 64 64 64 62 60 57 53 47 42 39 36 34 32 32 32 32 33 33 34 34 35 35 36 36 36 36 36 35 34 34 34 33 33 34 34 35 35 35 35 35 36 37 38 38 38 39 39 40 41 42 43 42 41 40 39 38 38 38 37 37 37 36 36 33
72 74 74 78 81 80 80 79 76 73 72 72 71 70 70 68 66 64 65 67 67 67 68 67 66 65 63 60 58 51 42 36 34 33 32 32 32 33 34 35 36 37 37 38 38 38 38 37 36 36 35 35 35 35 35 35 36 36 35 35 36 37 38 39 39 40 40 40 40 41 43 44 44 42 41 40 39 38 37 37 37 36 36 36 34 32
72 73 73 74 73 71 72 72 70 68 67 67 68 68 69 69 68 68 69 69 69 70 71 68 65 65 63 59 55 47 40 35 33 33 34 34 35 36 37 39 39 40 40 39 40 39 38 38 37 37 36 35 35 36 37 37 37 37 37 38 38 39 39 40 40 40 41 40 41 43 44 45 43 42 41 39 38 37 37 37 36 36 35 35 33 33
70 70 69 68 68 68 69 68 67 66 65 64 64 64 64 65 66 67 67 66 67 69 68 63 61 62 60 54 49 45 42 40 39 39 38 38 39 41 42 43 43 43 43 42 41 40 39 39 39 39 37 37 37 38 39 40 39 39 39 40 40 40 41 41 41 41 41 41 42 44 45 44 43 41 40 39 38 38 37 37 36 35 35 35 34 34
67 66 65 64 64 65 66 66 67 66 65 65 64 62 62 62 62 63 62 61 62 64 63 60 60 61 58 53 50 50 50 49 48 47 47 46 45 44 43 44 44 44 44 43 43 42 41 42 42 41 39 39 40 42 42 42 41 41 42 42 42 42 42 42 42 42 42 43 44 45 45 44 43 41 40 39 38 38 37 36 36 36 36 36 36 36
66 65 65 63 63 64 64 64 65 64 64 64 64 63 62 62 62 63 63 62 63 64 64 65 66 65 62 58 57 56 55 54 54 54 53 52 49 45 42 42 42 42 43 43 44 44 44 44 45 43 42 42 44 44 44 43 43 43 44 43 43 43 43 43 43 44 44 45 45 46 45 44 43 41 40 39 39 38 37 37 37 38 38 38 38 38
68 68 67 63 62 64 64 65 65 63 62 64 65 65 65 64 64 64 64 64 66 66 66 68 71 69 65 61 59 58 57 56 56 56 54 52 50 48 46 44 43 43 44 45 46 46 46 46 46 46 45 46 46 46 45 45 46 45 45 45 45 45 45 45 45 45 45 45 45 46 46 44 43 42 41 40 39 38 38 39 39 39 39 39 40 40
72 71 69 65 63 62 63 66 66 64 64 67 66 64 63 64 63 63 62 63 64 64 64 66 67 65 62 59 57 57 58 57 56 55 53 52 52 53 53 50 48 46 46 47 48 48 48 48 48 48 48 48 47 47 47 48 47 47 47 47 46 46 46 46 46 46 45 45 45 46 46 45 44 43 41 41 40 39 39 40 40 40 41 41 41 41
71 70 68 66 63 63 65 66 67 69 71 69 62 59 60 60 59 59 59 59 60 61 61 60 59 58 58 58 56 57 57 57 56 55 54 54 55 55 55 54 53 51 49 49 49 50 50 50 50 51 50 49 48 49 49 49 49 49 49 48 47 47 47 47 47 46 45 44 45 46 46 46 45 43 42 41 40 39 41 42 41 41 42 42 42 42
71 69 68 66 64 65 66 65 68 73 72 65 61 61 62 61 59 60 60 59 60 61 60 60 58 58 59 59 57 56 56 57 58 57 56 56 57 57 56 56 55 53 52 52 52 52 52 52 52 52 51 50 50 50 51 51 51 51 51 49 48 48 48 48 47 46 44 44 45 46 47 46 45 44 43 41 40 41 42 43 42 43 43 43 43 43
75 72 71 70 69 68 67 67 69 69 65 62 64 67 67 65 63 64 65 63 62 62 62 62 60 59 60 60 59 59 57 57 58 58 57 57 57 57 57 57 56 55 54 54 54 53 52 52 52 52 51 52 52 53 52 52 52 52 52 51 50 49 48 48 47 46 45 45 46 47 47 46 45 45 44 42 42 43 44 44 44 44 44 44 45 45
77 76 75 74 75 72 71 69 67 64 65 67 66 64 62 60 59 60 60 56 53 55 57 55 53 52 52 53 56 57 56 57 59 58 58 59 59 58 58 58 58 58 57 56 54 52 52 52 53 53 53 54 54 54 53 54 54 53 53 53 50 48 49 48 46 45 46 46 47 48 47 47 46 46 44 43 43 44 45 45 45 45 46 46 46 46
77 78 78 77 77 76 75 72 69 69 70 65 58 54 54 55 56 57 57 54 50 50 49 47 45 44 44 48 54 56 56 58 56 51 53 58 60 60 60 59 59 60 60 58 56 54 54 55 54 54 54 55 55 55 55 56 55 55 54 54 51 48 49 49 46 46 47 47 47 47 47 48 48 47 45 45 44 45 46 46 46 47 48 48 48 48
70 72 74 75 77 79 79 76 75 74 68 59 53 53 55 57 56 57 61 57 49 45 45 44 42 41 43 48 53 54 56 57 50 44 49 55 55 57 60 60 60 61 61 61 59 57 56 56 56 56 57 57 57 57 57 57 57 56 55 54 51 50 49 47 45 46 47 47 46 47 48 49 49 47 46 45 45 46 46 46 47 48 49 50 50 50
58 61 65 69 70 72 74 74 73 70 62 57 57 57 58 56 53 58 62 54 42 40 44 43 41 41 43 47 49 49 51 51 46 47 52 54 52 54 57 58 60 61 61 61 60 58 57 58 58 59 59 59 58 57 58 59 58 58 57 55 53 51 48 45 44 46 47 47 47 48 50 51 50 48 46 45 45 46 46 46 48 49 50 51 51 51
53 54 57 61 63 63 65 69 70 66 59 58 59 58 58 57 56 60 58 48 41 43 44 42 43 45 46 48 49 48 49 48 49 52 55 54 53 54 53 55 57 59 60 61 61 60 59 59 60 60 60 59 58 59 59 59 59 59 57 56 54 51 46 43 43 45 47 47 48 50 51 51 50 47 46 45 46 47 47 47 49 50 51 52 52 52
53 53 52 54 57 58 59 61 64 64 60 59 60 60 60 61 61 59 52 48 48 49 45 44 46 46 47 49 50 50 51 52 53 55 56 56 56 55 54 54 56 57 58 59 59 59 59 59 59 60 60 59 60 60 60 60 60 60 59 57 53 49 45 44 44 45 47 48 49 51 51 51 49 47 46 46 47 47 48 49 50 51 52 52 52 53
50 53 53 52 52 54 55 56 59 61 60 60 61 62 62 62 60 55 50 49 49 49 48 49 48 48 50 52 52 53 53 54 55 56 56 57 58 58 57 56 56 56 56 56 57 57 58 58 60 61 61 61 62 62 61 60 59 59 58 56 52 47 45 45 45 46 48 49 50 52 51 50 48 47 46 47 48 48 49 50 51 51 52 52 53 54
48 50 53 53 51 52 55 56 55 56 58 60 60 60 59 57 53 51 50 49 48 49 52 53 52 54 55 55 56 57 55 55 55 55 55 56 57 58 58 56 55 56 55 55 56 57 57 58 59 60 61 62 61 60 59 58 57 58 58 56 51 47 47 47 47 48 49 50 52 52 51 50 49 48 47 48 49 50 50 50 50 51 51 52 52 53
50 49 51 53 54 54 54 53 50 50 53 58 59 59 58 55 52 50 49 49 50 52 53 55 56 58 58 57 58 57 56 55 55 54 54 55 56 56 56 55 54 55 55 55 54 55 56 56 56 57 58 58 58 57 57 57 58 58 58 56 53 50 50 49 49 49 51 52 53 53 52 51 50 50 49 50 51 51 51 50 50 50 51 52 53 54
54 52 50 50 53 56 54 52 49 47 48 52 55 57 57 56 54 53 51 50 51 52 53 54 56 57 59 58 56 55 55 55 54 54 55 55 55 56 56 55 54 54 55 54 52 53 53 52 51 52 53 54 55 56 57 58 58 58 57 57 55 54 53 52 52 52 53 54 54 54 54 54 53 52 52 53 53 52 51 50 50 51 52 54 55 55
57 56 53 51 51 52 51 51 51 49 49 50 53 54 54 54 55 55 54 53 53 54 54 54 55 57 59 59 57 55 56 56 55 56 56 55 56 57 57 57 55 54 54 54 52 52 53 52 51 51 51 52 54 55 56 57 57 58 58 57 57 56 56 55 54 53 54 54 55 56 57 57 56 55 55 56 55 53 52 51 52 54 54 55 55 56
59 58 57 55 51 47 45 48 51 53 53 53 54 54 54 54 56 58 58 57 57 57 57 57 57 58 59 60 60 59 57 56 57 57 57 57 57 57 58 57 56 55 55 54 53 53 54 54 53 53 52 51 51 52 54 55 56 57 57 57 57 57 57 56 56 56 56 57 57 57 58 57 57 56 56 56 55 54 54 54 55 56 56 56 57 58
60 59 58 56 53 48 43 44 49 53 54 54 55 54 53 53 55 58 59 59 57 56 56 57 58 58 59 60 61 61 59 59 58 58 58 58 57 57 58 58 57 57 56 54 53 54 56 57 56 55 54 52 50 50 51 53 54 55 56 57 57 57 57 57 57 58 59 59 59 59 58 57 56 56 56 56 55 55 56 57 58 58 58 59 60 60
60 60 58 58 56 50 44 42 45 48 49 51 54 55 55 54 54 54 55 56 55 55 56 58 59 59 60 60 61 61 61 61 61 61 61 60 59 59 59 58 59 59 57 56 56 56 57 59 59 58 57 55 53 51 52 53 54 55 56 57 58 57 58 58 59 60 61 61 61 60 59 58 57 57 57 57 57 58 59 59 60 60 60 61 62 62
58 58 58 58 57 52 48 49 49 47 46 48 53 56 57 57 56 54 54 55 56 57 59 60 61 61 62 62 63 63 62 63 63 62 62 61 62 62 61 61 61 60 60 60 59 59 60 61 61 61 60 59 57 55 54 55 55 56 57 57 58 58 59 59 60 61 62 62 61 60 59 59 59 59 59 59 59 60 61 61 61 62 62 63 64 64
Wind_Direction
215 213 213 215 213 212 213 214 216 216 216 219 219 220 222 221 219 220 224 227 230 231 234 235 230 228 231 231 234 236 235 232 231 227 223 222 224 225 222 222 224 223 227 231 227 224 225 226 226 223 220 220 221 224 229 235 238 238 239 240 243 245 245 243 243 247 249 251 252 254 257 258 261 262 263 263 264 267 270 271 273 275 278 281 284 285
217 215 214 216 216 215 215 216 217 215 216 219 218 219 221 220 220 221 224 227 230 231 232 234 230 228 232 232 232 236 236 234 234 232 229 224 223 225 224 223 222 222 225 228 227 227 227 226 227 226 224 224 224 224 225 231 237 242 243 242 242 242 243 245 247 250 252 255 256 258 258 259 260 261 262 264 265 267 268 270 271 274 276 279 282 283
216 214 213 216 216 217 218 217 217 216 218 220 219 221 222 222 223 224 226 228 230 231 232 236 233 228 231 232 232 234 235 235 235 235 233 230 226 225 226 225 222 222 223 222 221 224 226 227 227 226 227 227 227 227 226 230 233 237 241 243 243 242 243 246 249 250 252 255 259 260 261 262 262 262 264 265 267 268 268 271 274 275 277 278 280 281
213 212 212 215 216 217 219 218 218 216 218 221 222 223 224 224 225 225 227 229 231 232 233 236 233 229 232 233 233 233 232 231 234 235 235 233 230 226 226 227 223 221 222 220 217 220 224 227 228 227 228 228 229 229 229 231 231 232 236 240 244 246 247 249 250 251 254 257 261 262 264 266 266 267 268 269 270 270 272 275 277 279 280 280 281 282
214 212 211 213 214 216 219 219 219 216 217 222 223 223 224 225 225 225 227 230 232 233 233 236 233 228 231 233 233 234 231 228 230 234 234 235 233 227 225 228 228 224 222 220 219 220 222 224 228 229 229 229 230 233 234 235 233 233 236 241 246 250 252 254 255 257 259 261 262 263 264 266 268 270 271 271 271 274 277 278 279 281 281 282 282 283
217 215 213 214 214 215 217 219 219 218 218 222 222 220 222 225 225 225 227 229 233 235 234 238 235 226 230 234 233 236 236 231 230 232 233 235 234 227 224 227 230 227 223 220 217 218 220 222 226 229 231 233 234 237 239 239 238 238 240 245 249 252 254 256 259 262 263 263 264 265 266 268 270 272 272 272 274 277 280 281 282 283 283 284 285 286
217 216 214 214 216 216 218 219 219 219 221 224 223 222 224 226 226 226 228 230 233 235 235 239 238 226 226 233 233 235 238 235 233 233 232 235 235 230 226 225 227 227 225 222 218 218 222 225 227 229 231 233 234 236 238 239 240 241 243 246 248 251 255 259 262 264 265 265 266 268 269 272 273 273 274 276 279 282 283 285 286 287 288 289 290 291
217 217 214 214 215 217 219 221 220 220 224 226 225 225 227 229 229 229 230 232 233 234 234 236 239 231 222 228 234 234 236 236 235 234 233 233 235 233 230 226 224 225 227 226 224 224 227 227 226 227 228 230 231 234 237 239 242 244 245 247 249 253 258 262 264 266 268 269 270 271 273 275 276 277 279 282 284 286 287 289 290 291 292 293 294 295
217 217 216 215 216 216 218 220 220 218 221 222 219 222 226 228 229 230 231 232 233 234 233 232 236 234 219 217 233 234 232 234 233 232 231 232 233 234 233 230 224 224 227 230 232 234 235 230 227 227 228 230 232 235 237 239 241 244 247 250 252 255 257 259 262 266 269 271 273 275 277 279 280 281 283 285 288 289 290 291 292 292 293 294 295 296
215 216 216 216 217 218 218 219 219 217 219 219 215 219 226 229 230 232 232 233 234 233 233 230 233 237 218 203 224 233 227 227 225 226 228 230 231 231 232 232 227 226 229 233 237 241 241 235 231 231 233 236 238 239 240 240 242 244 246 247 249 250 252 255 259 262 265 268 271 274 276 277 279 280 281 284 286 287 288 290 290 291 292 293 294 294
213 214 214 214 216 218 219 219 218 216 217 220 221 223 228 231 232 234 233 234 235 233 231 230 232 237 224 198 212 227 220 217 219 220 224 225 226 226 229 232 231 231 232 234 237 239 238 235 232 233 235 238 239 239 240 239 240 241 243 245 247 250 253 255 256 258 260 263 266 268 271 273 275 277 278 281 282 284 285 286 287 288 290 291 291 292
212 213 213 214 215 217 218 219 219 218 216 218 222 225 228 231 233 234 233 233 234 232 229 228 230 235 226 195 202 217 214 216 218 217 220 222 223 224 227 229 229 229 229 230 232 233 233 234 234 234 233 234 238 239 238 237 238 240 242 245 247 250 252 253 256 258 260 262 264 266 269 271 274 277 279 280 281 282 283 284 285 285 286 286 287 288
213 212 212 213 215 216 217 217 218 218 217 216 219 223 226 229 232 233 232 232 233 232 229 227 230 234 222 190 198 211 214 219 219 218 220 220 221 223 224 225 225 224 224 223 224 226 230 231 232 231 228 229 232 233 233 234 236 237 238 239 240 243 247 251 255 257 261 264 265 268 271 274 277 281 282 283 283 285 285 285 284 284 284 284 284 284
213 212 211 211 214 215 216 218 219 219 219 218 218 220 223 227 231 232 231 231 232 234 233 231 233 233 218 197 199 205 215 223 221 221 223 219 215 216 218 219 219 218 217 217 218 220 223 221 218 217 217 219 219 221 224 226 229 231 233 235 237 241 247 252 256 262 268 271 273 277 280 281 283 285 286 287 287 287 287 286 285 283 282 282 281 281
213 213 213 213 215 216 217 220 221 223 224 222 220 219 221 226 231 233 235 235 236 239 240 237 234 228 215 207 206 204 215 225 224 226 230 225 218 216 218 218 215 214 213 213 215 217 216 212 211 216 220 221 221 221 223 224 228 232 236 240 242 247 253 258 263 270 275 277 280 282 283 283 284 286 288 288 288 288 287 286 285 284 283 283 282 282
214 214 214 215 216 217 218 220 221 222 223 223 222 221 222 226 229 233 236 237 239 241 241 237 232 226 217 216 217 213 214 221 226 229 235 236 233 231 231 227 222 220 220 221 223 223 221 218 221 225 227 228 230 229 229 231 235 238 242 245 247 251 258 262 267 272 275 276 277 278 279 281 284 287 288 287 286 286 286 286 286 285 285 285 285 284
215 215 215 216 216 216 217 219 221 222 222 222 223 222 223 226 228 231 235 236 237 238 238 235 232 229 224 220 222 222 219 221 225 228 232 238 241 242 241 237 234 231 229 231 231 230 228 229 233 234 231 232 234 235 237 240 243 246 248 250 252 255 261 265 270 274 275 275 274 274 277 280 283 286 286 285 285 285 286 286 286 286 286 286 286 286
216 215 216 217 216 216 216 218 219 221 223 224 224 224 225 228 230 232 235 237 238 238 238 236 233 232 228 221 222 227 228 228 228 229 232 237 241 244 246 245 244 242 240 238 237 235 235 236 239 241 238 237 238 239 242 246 250 253 254 256 257 260 263 268 273 276 275 273 273 274 277 282 286 287 288 287 287 287 287 286 286 287 286 287 287 288
217 216 217 217 216 216 216 216 216 218 222 225 226 226 227 229 231 233 235 237 238 239 239 238 236 234 230 226 226 230 233 235 234 233 235 237 240 243 246 249 250 249 248 246 244 243 242 244 245 245 245 245 245 244 247 249 252 255 257 259 260 262 266 270 274 275 273 273 273 277 282 286 289 289 289 288 287 287 287 286 287 287 287 288 289 291
218 217 218 218 218 217 216 217 218 218 220 222 223 223 224 227 230 233 235 238 240 241 241 241 240 235 232 233 233 233 234 237 237 237 238 240 241 244 246 248 249 249 250 249 248 247 246 247 248 248 248 249 249 249 251 253 254 256 258 259 261 265 269 273 275 275 275 276 277 281 285 288 289 288 288 288 287 288 288 288 288 288 289 291 292 294
218 218 219 218 219 220 219 219 221 222 224 225 225 224 223 224 227 228 231 234 237 239 239 240 238 234 234 238 237 235 236 238 239 240 242 243 244 244 244 245 245 246 247 247 248 248 248 248 248 249 250 250 251 253 255 257 258 260 261 263 265 269 271 273 275 276 277 278 279 282 285 286 288 289 289 289 289 290 290 290 291 292 293 294 294 295
218 219 220 220 220 221 222 222 222 224 226 229 231 231 229 229 230 230 232 234 236 238 239 240 239 236 238 241 239 238 239 240 242 244 244 245 245 245 245 244 244 245 245 246 247 248 250 251 251 252 252 253 255 257 260 261 262 263 265 266 268 270 272 274 276 277 277 277 278 281 283 286 289 290 291 291 291 291 292 292 293 293 293 293 294 294
221 220 222 222 222 222 223 223 223 223 224 226 229 231 232 233 234 236 238 239 241 244 245 247 245 241 241 242 241 243 243 242 244 245 245 246 245 246 247 247 247 247 247 247 248 249 251 252 254 255 256 258 260 262 263 264 265 266 268 269 270 272 273 275 276 276 276 276 278 281 284 287 289 290 291 291 291 291 291 291 291 291 291 291 292 292
223 220 221 222 223 223 223 223 223 223 224 225 226 228 230 232 233 236 238 240 242 243 245 247 245 241 241 243 242 242 243 243 244 244 245 245 245 246 247 248 249 250 250 251 251 252 253 254 255 257 259 260 262 264 265 267 268 269 270 271 272 272 274 275 276 276 276 277 280 283 286 288 289 289 290 289 288 288 288 288 288 288 288 289 290 291
226 222 220 220 220 221 221 221 221 221 223 225 228 229 232 233 233 234 235 236 239 239 240 243 242 239 242 244 243 241 242 242 243 243 244 244 245 246 247 248 250 251 252 253 254 254 255 256 257 259 261 263 264 266 267 268 269 270 270 270 271 273 274 275 276 276 278 280 282 284 286 287 288 288 288 287 286 285 286 286 286 286 287 288 289 290
227 226 224 222 221 222 221 221 221 222 224 226 228 230 232 234 234 236 237 238 238 239 240 242 241 241 243 246 247 246 244 243 243 243 243 244 246 248 249 251 252 253 254 254 254 255 256 258 259 261 263 265 266 268 269 270 270 271 271 272 273 274 275 276 278 279 281 282 282 283 284 285 286 286 285 284 283 283 284 284 284 285 286 287 287 287
226 226 226 225 226 228 228 227 227 227 228 227 228 229 231 233 234 235 236 238 239 240 241 241 241 243 244 247 250 251 251 250 248 246 245 245 246 249 251 253 255 255 255 254 255 256 257 259 260 262 263 265 266 268 269 271 272 272 273 273 274 276 277 278 279 280 280 280 280 281 283 284 284 283 282 281 281 282 282 282 282 283 284 284 284 283
224 224 225 225 227 229 232 233 233 234 234 234 233 233 233 233 234 234 236 238 239 240 240 239 241 244 245 249 253 256 259 258 255 253 250 249 249 251 253 254 254 254 253 253 255 257 258 260 261 262 263 265 267 268 270 271 271 272 274 274 276 277 277 278 278 278 277 277 278 280 282 282 281 279 278 279 280 280 280 280 281 281 282 282 281 280
222 224 225 226 227 228 230 232 233 235 237 237 237 237 236 237 237 239 241 242 243 245 244 244 246 247 248 253 257 260 262 261 259 258 256 254 253 252 252 252 252 253 254 255 256 258 260 261 262 263 264 266 268 269 270 270 271 273 275 276 277 277 277 277 276 275 274 275 277 279 280 279 277 276 276 277 278 278 278 279 280 281 282 281 280 279
221 223 225 226 228 229 230 230 231 232 233 233 233 234 234 236 238 239 241 242 245 247 246 245 248 249 250 254 257 259 261 260 260 259 258 256 253 249 248 250 252 254 255 256 257 259 260 261 263 264 265 267 268 268 269 271 273 276 277 278 278 278 277 277 275 274 274 275 277 279 278 277 274 274 276 277 277 277 278 279 280 281 281 281 280 279
220 222 224 227 230 231 231 232 232 233 233 233 232 232 232 232 233 234 235 236 239 242 243 244 246 247 248 250 252 254 256 257 258 258 258 257 256 252 250 250 251 253 253 254 257 258 259 261 263 264 266 266 267 268 271 273 275 277 278 278 278 278 278 276 275 274 275 276 278 278 276 274 273 274 275 276 276 277 278 280 280 281 281 280 279 279
219 222 223 225 229 232 233 233 234 234 235 234 232 231 231 232 232 233 235 237 239 241 242 242 244 245 246 248 249 251 253 255 256 258 258 259 260 258 254 251 250 251 252 254 257 259 260 262 263 265 265 266 268 270 272 274 275 276 276 277 277 278 276 274 273 273 274 275 277 275 273 271 272 274 275 275 275 277 279 280 280 280 280 279 279 279
219 222 223 225 229 231 233 235 235 235 234 232 231 232 234 235 236 237 238 239 240 241 242 243 245 247 248 248 248 249 251 253 254 255 257 258 259 259 259 257 255 254 254 255 257 259 261 262 264 265 266 267 269 271 272 273 275 276 277 278 278 276 274 273 273 273 273 274 273 271 270 270 272 273 274 275 276 278 279 279 279 279 278 278 279 280
221 223 224 226 228 229 231 233 233 232 232 233 234 236 237 238 238 239 239 240 241 242 243 244 245 245 246 247 247 248 250 252 253 253 254 255 257 258 260 260 260 258 257 257 258 259 261 262 264 265 266 267 268 270 271 274 276 277 278 278 277 276 274 273 273 272 272 271 270 268 269 270 271 273 274 275 277 278 279 279 279 278 278 279 281 281
223 223 223 224 226 228 228 229 230 232 234 237 237 237 238 238 239 241 241 242 243 245 246 246 245 245 247 248 249 250 249 250 250 251 252 254 255 256 257 259 260 260 261 261 261 261 262 262 263 263 264 266 267 269 271 274 275 276 277 277 277 275 274 273 272 271 269 268 267 267 268 270 272 273 274 276 278 279 279 279 279 278 279 281 283 283
224 225 224 225 226 227 228 229 231 234 238 239 238 237 238 238 239 242 243 242 243 244 244 244 244 245 246 248 249 249 248 247 248 249 251 253 253 255 257 259 259 260 260 261 261 261 262 262 262 263 264 266 267 269 271 272 273 274 275 276 275 273 272 270 269 268 267 267 266 266 268 270 273 274 275 277 279 279 279 278 278 279 280 282 283 284
225 225 225 226 228 229 230 231 233 235 237 237 237 238 239 240 242 245 246 244 243 243 243 243 243 244 245 248 250 250 250 249 249 249 252 253 253 255 256 257 259 259 258 258 260 261 262 263 263 264 265 266 267 269 269 270 271 273 274 274 273 270 268 267 266 265 266 265 265 265 268 271 273 274 276 278 278 278 278 278 279 280 281 282 283 283
227 227 228 229 231 232 233 235 236 237 237 237 236 235 236 238 239 242 244 241 237 239 242 241 240 241 243 246 249 250 251 250 248 248 251 253 253 253 254 254 256 258 259 259 259 260 262 263 264 264 265 266 267 268 269 271 272 273 273 273 272 268 265 264 264 264 264 264 264 266 269 271 273 274 276 278 278 278 278 279 280 281 281 282 282 283
229 230 231 232 234 235 237 238 238 238 238 235 233 233 236 238 237 239 243 238 231 235 243 243 241 242 243 246 249 250 250 250 249 249 249 251 252 253 253 252 253 255 257 258 259 259 261 262 263 264 264 266 267 269 270 271 272 272 271 272 270 267 264 263 262 262 262 263 265 267 269 271 273 275 277 278 277 277 278 279 280 281 281 282 282 282
228 229 229 231 234 236 238 239 239 238 236 233 232 234 237 239 239 241 242 237 230 239 249 249 246 244 244 246 248 248 248 249 249 248 248 248 250 251 250 250 251 252 254 256 258 259 260 261 262 263 265 266 267 268 268 269 269 270 271 271 270 268 265 264 261 260 262 263 265 266 268 270 273 275 276 277 277 277 278 279 280 281 282 282 282 282
224 227 227 229 232 233 235 237 239 239 236 233 234 235 237 240 241 241 241 237 235 242 247 245 244 242 241 244 246 245 246 247 244 244 246 246 247 249 250 249 251 252 253 255 256 258 259 260 262 263 264 265 266 266 267 268 269 270 270 270 270 268 267 265 263 262 263 264 265 266 268 270 273 276 277 277 277 277 278 279 280 281 282 282 283 284
218 224 227 228 231 232 233 234 237 237 235 235 236 236 237 239 241 242 242 241 241 242 240 239 241 242 243 245 245 244 244 245 245 245 246 247 248 251 251 250 250 252 253 254 256 257 259 260 262 263 264 264 265 265 266 267 268 269 269 270 270 271 270 269 266 264 264 265 266 267 269 272 275 276 277 277 277 278 278 279 281 282 283 284 285 286
212 220 226 228 230 231 232 232 232 232 232 235 238 238 238 240 242 242 241 241 240 239 238 238 240 242 243 244 244 243 243 244 245 246 247 248 250 251 252 251 251 252 253 255 256 257 258 259 260 262 263 263 264 265 266 268 268 269 270 271 272 272 272 271 268 266 266 266 267 269 271 274 276 276 276 276 277 278 279 280 281 283 284 285 287 288
211 215 222 227 230 231 231 230 230 229 229 232 236 238 239 240 241 241 240 239 238 237 238 239 241 243 244 243 243 244 243 244 245 247 248 250 251 252 253 253 253 253 254 255 256 257 257 257 258 259 261 262 264 266 267 268 268 269 270 272 272 272 271 270 268 267 267 268 269 271 273 275 276 276 276 277 279 280 280 281 282 283 284 286 288 290
216 214 218 223 227 231 232 230 228 227 227 229 232 235 237 238 238 237 237 236 236 236 237 238 241 244 245 244 243 244 245 245 246 247 250 251 253 253 254 255 255 255 255 255 256 257 257 257 257 258 260 262 264 265 266 267 268 269 270 272 272 271 269 268 268 269 269 270 271 273 275 276 276 277 278 280 282 282 282 282 283 284 286 288 290 291
222 218 218 219 223 227 230 230 227 224 224 226 229 232 235 236 236 236 235 236 236 237 237 238 240 242 245 245 244 244 244 246 246 246 247 250 252 253 253 252 253 254 254 254 255 255 256 257 258 259 260 262 263 264 265 266 267 268 269 270 270 270 269 269 269 270 271 272 274 275 276 277 278 279 281 282 282 282 283 284 285 287 289 290 291 292
227 224 221 221 220 221 224 227 227 226 225 224 224 228 231 232 232 233 234 235 236 237 237 237 237 239 242 244 244 243 242 244 244 244 244 247 249 251 251 251 251 252 253 255 256 258 259 261 261 261 260 260 261 262 263 264 265 266 266 268 269 270 270 271 271 272 273 273 274 275 276 277 278 279 280 280 281 281 283 285 287 288 289 290 291 291
232 228 225 224 222 218 217 221 224 225 226 225 224 226 228 228 230 231 231 232 233 234 235 235 236 237 239 242 243 244 243 242 242 243 244 245 247 249 250 250 251 251 253 256 258 261 262 262 263 264 263 261 260 261 261 261 261 263 264 266 267 268 270 272 273 274 275 274 274 274 275 275 277 278 279 280 281 282 284 285 287 288 289 290 290 290
234 232 228 226 223 217 213 217 221 224 226 227 227 229 230 229 229 230 231 233 234 235 236 237 238 239 240 242 244 245 246 245 244 244 244 246 247 248 249 250 251 252 254 256 258 260 261 262 264 265 265 263 261 261 260 259 259 261 262 264 265 267 269 270 271 272 273 274 275 275 276 277 278 279 280 281 282 284 285 286 286 287 288 289 288 288
236 236 233 230 226 218 215 220 224 224 225 227 230 231 232 232 231 230 232 235 236 236 237 237 239 240 241 243 245 246 247 247 247 246 246 246 247 248 249 249 250 252 254 256 257 258 259 261 262 263 264 264 263 262 260 258 257 258 259 261 263 265 266 268 269 270 271 272 273 274 276 278 278 279 281 282 283 284 285 285 285 286 286 286 286 287
235 236 235 234 229 221 220 226 229 225 223 225 229 231 232 233 233 231 231 233 234 235 236 237 238 239 240 242 244 246 248 249 249 249 248 248 249 249 249 250 251 252 254 256 257 257 257 258 259 261 262 264 264 263 260 258 257 257 258 259 261 263 264 265 266 267 269 270 272 273 275 276 277 279 280 281 282 283 283 283 284 284 284 284 285 286
Height
5779 5782 5785 5790 5796 5799 5802 5805 5809 5814 5820 5824 5826 5828 5830 5831 5833 5834 5834 5835 5838 5841 5843 5845 5847 5847 5847 5848 5850 5850 5852 5856 5859 5862 5864 5865 5867 5868 5870 5872 5873 5875 5875 5875 5876 5878 5878 5879 5880 5881 5882 5883 5884 5885 5886 5886 5887 5887 5889 5889 5890 5890 5891 5892 5892 5892 5893 5893 5894 5894 5895 5895 5895 5896 5896 5896 5896 5895 5894 5894 5893 5892 5892 5891 5891 5890
5773 5777 5784 5791 5796 5799 5802 5805 5809 5813 5817 5820 5822 5824 5826 5828 5830 5831 5832 5834 5836 5839 5841 5841 5843 5845 5844 5846 5847 5847 5850 5854 5857 5858 5860 5862 5864 5865 5868 5870 5871 5872 5872 5874 5875 5876 5877 5877 5878 5879 5880 5881 5882 5883 5884 5884 5884 5885 5887 5887 5888 5888 5889 5889 5890 5890 5891 5891 5891 5892 5893 5893 5893 5893 5893 5893 5893 5892 5891 5890 5890 5890 5890 5889 5888 5887
5766 5775 5784 5789 5793 5797 5800 5803 5806 5810 5814 5816 5819 5821 5823 5826 5828 5830 5831 5833 5835 5837 5838 5838 5840 5842 5841 5842 5844 5845 5849 5853 5853 5855 5857 5859 5861 5864 5866 5867 5869 5869 5870 5872 5874 5874 5875 5875 5876 5877 5878 5878 5879 5880 5881 5882 5882 5883 5884 5884 5885 5886 5887 5887 5888 5888 5888 5889 5889 5890 5890 5890 5890 5891 5891 5890 5890 5889 5888 5888 5887 5887 5887 5887 5886 5885
5763 5773 5780 5784 5789 5793 5796 5799 5802 5807 5810 5811 5814 5816 5819 5824 5826 5829 5831 5831 5832 5834 5835 5836 5837 5839 5838 5839 5842 5844 5847 5849 5849 5851 5854 5856 5859 5862 5864 5864 5865 5867 5868 5869 5871 5872 5873 5873 5874 5875 5875 5876 5877 5878 5879 5880 5880 5881 5881 5881 5881 5883 5884 5885 5885 5885 5886 5887 5887 5888 5887 5888 5888 5888 5888 5888 5887 5886 5885 5885 5885 5884 5884 5884 5883 5882
5762 5768 5773 5778 5783 5788 5792 5795 5799 5803 5805 5806 5809 5812 5818 5823 5825 5828 5828 5828 5829 5831 5833 5833 5834 5837 5836 5837 5840 5841 5842 5845 5847 5849 5851 5854 5857 5860 5860 5861 5863 5864 5865 5866 5868 5869 5870 5871 5872 5873 5873 5874 5875 5876 5877 5877 5878 5878 5878 5879 5879 5880 5881 5882 5882 5883 5883 5884 5885 5885 5885 5885 5885 5885 5885 5885 5884 5883 5883 5883 5882 5882 5881 5880 5880 5878
5757 5763 5770 5775 5779 5783 5787 5790 5795 5799 5802 5804 5806 5811 5816 5820 5823 5824 5824 5825 5827 5828 5830 5830 5832 5835 5835 5835 5838 5838 5839 5843 5845 5846 5849 5852 5854 5856 5857 5859 5860 5861 5862 5863 5865 5866 5867 5869 5869 5871 5871 5872 5874 5874 5874 5874 5875 5876 5877 5877 5878 5878 5879 5879 5879 5880 5881 5881 5881 5882 5882 5882 5883 5883 5882 5881 5881 5881 5881 5880 5879 5878 5878 5877 5876 5875
5751 5758 5767 5772 5776 5781 5783 5786 5791 5796 5799 5802 5806 5811 5813 5816 5819 5820 5822 5823 5824 5826 5828 5827 5829 5832 5833 5834 5836 5836 5837 5840 5842 5844 5848 5849 5850 5853 5854 5856 5857 5858 5859 5860 5862 5863 5864 5866 5867 5868 5869 5870 5871 5871 5871 5871 5873 5874 5874 5875 5876 5876 5876 5877 5877 5877 5878 5878 5878 5878 5879 5879 5879 5879 5879 5878 5878 5878 5878 5877 5876 5875 5874 5873 5873 5872
5746 5754 5762 5767 5772 5776 5779 5784 5789 5794 5797 5800 5805 5809 5810 5813 5816 5817 5819 5820 5821 5823 5824 5825 5826 5829 5831 5832 5833 5833 5835 5837 5839 5842 5845 5846 5847 5849 5851 5852 5853 5855 5856 5856 5858 5859 5861 5863 5864 5865 5866 5867 5868 5867 5868 5869 5870 5871 5872 5872 5873 5874 5874 5874 5874 5875 5875 5875 5875 5875 5876 5876 5876 5876 5876 5875 5876 5876 5875 5874 5873 5872 5871 5870 5869 5869
5746 5752 5759 5764 5767 5770 5775 5781 5786 5792 5795 5798 5803 5805 5806 5809 5812 5813 5815 5815 5817 5819 5820 5823 5824 5826 5829 5831 5830 5831 5833 5834 5837 5839 5841 5842 5844 5846 5847 5849 5850 5852 5853 5854 5855 5857 5858 5860 5861 5862 5862 5863 5864 5864 5865 5867 5867 5868 5869 5870 5871 5871 5872 5871 5872 5872 5872 5872 5872 5872 5873 5873 5873 5873 5872 5872 5872 5872 5871 5871 5870 5869 5868 5867 5866 5865
5740 5747 5755 5759 5762 5767 5773 5777 5782 5788 5792 5796 5799 5800 5802 5805 5807 5809 5810 5812 5814 5815 5817 5820 5822 5823 5826 5829 5828 5829 5831 5833 5834 5836 5837 5839 5841 5843 5844 5845 5847 5849 5850 5851 5853 5854 5856 5857 5858 5858 5859 5861 5861 5862 5863 5864 5865 5865 5866 5867 5868 5868 5868 5869 5869 5869 5870 5869 5869 5870 5870 5870 5870 5869 5869 5869 5869 5868 5867 5867 5866 5865 5864 5863 5862 5861
5734 5742 5747 5751 5759 5765 5769 5773 5777 5783 5788 5793 5795 5796 5799 5801 5804 5805 5806 5809 5810 5810 5814 5817 5819 5821 5824 5827 5827 5828 5830 5831 5832 5833 5834 5836 5838 5840 5841 5842 5844 5846 5848 5849 5850 5852 5853 5854 5855 5856 5857 5858 5858 5858 5860 5861 5862 5862 5863 5864 5865 5865 5866 5866 5866 5867 5867 5867 5867 5867 5867 5867 5866 5866 5866 5866 5865 5864 5863 5863 5862 5861 5860 5859 5858 5856
5728 5733 5739 5749 5756 5760 5764 5769 5774 5778 5783 5788 5790 5793 5795 5797 5799 5800 5801 5804 5803 5805 5810 5814 5816 5819 5823 5826 5827 5827 5829 5829 5830 5831 5832 5834 5837 5838 5839 5841 5842 5844 5845 5847 5848 5849 5850 5851 5852 5853 5854 5855 5855 5856 5857 5858 5858 5859 5860 5861 5862 5863 5863 5863 5863 5864 5864 5864 5864 5864 5864 5864 5863 5862 5862 5862 5861 5860 5860 5859 5858 5857 5856 5855 5853 5852
5722 5729 5739 5746 5749 5752 5758 5763 5767 5771 5776 5780 5785 5788 5790 5792 5794 5794 5795 5797 5798 5801 5806 5811 5814 5817 5822 5826 5826 5826 5827 5827 5828 5830 5831 5834 5835 5836 5837 5839 5840 5842 5843 5845 5846 5847 5848 5849 5850 5851 5851 5852 5853 5854 5855 5855 5856 5857 5858 5859 5859 5860 5860 5860 5860 5860 5861 5861 5861 5861 5861 5860 5860 5859 5859 5858 5858 5857 5856 5855 5854 5853 5852 5850 5849 5847
5718 5725 5730 5735 5740 5747 5752 5757 5761 5765 5769 5774 5779 5783 5783 5784 5786 5787 5789 5792 5795 5798 5804 5810 5813 5814 5820 5824 5824 5824 5824 5824 5826 5828 5830 5832 5833 5835 5836 5837 5839 5840 5841 5842 5844 5845 5846 5847 5848 5849 5849 5850 5851 5852 5853 5854 5855 5855 5856 5856 5857 5857 5857 5857 5858 5858 5858 5858 5858 5858 5857 5857 5856 5856 5856 5855 5854 5853 5852 5851 5850 5848 5847 5846 5844 5843
5711 5715 5723 5731 5738 5744 5750 5755 5761 5765 5769 5772 5776 5779 5779 5780 5784 5786 5788 5792 5795 5798 5803 5808 5809 5811 5818 5822 5822 5823 5823 5823 5825 5827 5828 5830 5831 5833 5834 5835 5836 5838 5839 5841 5842 5843 5844 5845 5846 5847 5848 5849 5850 5850 5851 5852 5853 5853 5853 5854 5854 5854 5854 5855 5855 5855 5856 5855 5855 5855 5854 5854 5853 5853 5852 5852 5851 5849 5848 5847 5845 5844 5843 5841 5840 5838
5707 5713 5724 5731 5735 5742 5747 5752 5756 5760 5763 5767 5771 5774 5777 5780 5783 5785 5787 5790 5793 5796 5798 5802 5804 5808 5815 5820 5820 5820 5821 5822 5824 5825 5826 5828 5829 5831 5832 5833 5834 5835 5837 5838 5840 5841 5842 5843 5844 5845 5846 5847 5847 5848 5849 5849 5850 5850 5850 5851 5851 5851 5852 5852 5853 5853 5853 5852 5852 5851 5851 5850 5850 5850 5849 5848 5847 5846 5844 5843 5842 5840 5838 5837 5836 5834
5705 5714 5722 5726 5731 5738 5742 5746 5751 5753 5755 5759 5763 5768 5774 5777 5778 5781 5782 5784 5788 5789 5791 5796 5800 5805 5811 5815 5817 5817 5818 5820 5821 5823 5824 5825 5827 5828 5829 5830 5831 5833 5835 5836 5837 5839 5840 5841 5842 5843 5844 5844 5845 5845 5846 5846 5847 5847 5847 5848 5848 5849 5849 5850 5850 5850 5849 5849 5848 5848 5848 5847 5847 5846 5846 5844 5843 5842 5841 5839 5838 5836 5835 5833 5832 5830
5705 5714 5719 5722 5729 5735 5738 5742 5745 5747 5750 5754 5758 5765 5771 5771 5772 5776 5778 5779 5782 5784 5786 5791 5796 5801 5806 5811 5814 5815 5816 5818 5819 5820 5822 5823 5825 5825 5826 5828 5829 5831 5832 5833 5835 5836 5837 5838 5839 5840 5841 5842 5842 5843 5843 5843 5844 5844 5844 5845 5845 5846 5846 5846 5846 5846 5846 5845 5845 5845 5844 5844 5844 5843 5842 5840 5839 5838 5837 5835 5834 5832 5830 5829 5828 5826
5703 5708 5711 5716 5722 5728 5732 5734 5735 5739 5745 5751 5757 5763 5764 5765 5768 5772 5772 5773 5777 5779 5782 5786 5791 5797 5802 5808 5813 5813 5814 5815 5816 5818 5819 5820 5822 5823 5824 5826 5827 5828 5830 5831 5832 5833 5834 5835 5836 5837 5838 5839 5839 5840 5840 5840 5841 5841 5841 5842 5842 5843 5843 5843 5843 5842 5841 5841 5841 5841 5841 5840 5839 5838 5837 5836 5835 5833 5832 5830 5829 5827 5826 5825 5824 5822
5698 5701 5704 5711 5717 5721 5724 5724 5726 5734 5740 5744 5749 5753 5756 5760 5764 5766 5768 5771 5774 5776 5779 5781 5785 5792 5799 5806 5810 5811 5811 5811 5812 5814 5816 5818 5819 5821 5822 5823 5824 5825 5827 5828 5829 5831 5831 5832 5833 5834 5835 5835 5836 5836 5837 5837 5838 5838 5839 5839 5839 5839 5839 5839 5838 5838 5837 5837 5837 5837 5837 5836 5835 5834 5833 5831 5830 5828 5827 5825 5824 5823 5821 5820 5819 5818
5692 5695 5700 5706 5710 5712 5715 5719 5726 5734 5737 5738 5741 5743 5748 5752 5754 5758 5762 5764 5768 5771 5773 5775 5778 5786 5796 5803 5805 5807 5808 5808 5809 5811 5813 5815 5816 5818 5819 5820 5821 5822 5824 5825 5826 5827 5828 5829 5830 5831 5831 5832 5832 5833 5833 5834 5835 5835 5835 5835 5836 5836 5835 5835 5834 5834 5834 5834 5834 5833 5832 5831 5830 5829 5828 5826 5825 5824 5822 5821 5820 5818 5817 5816 5814 5813
5685 5691 5695 5698 5701 5707 5715 5722 5729 5732 5734 5736 5738 5742 5747 5750 5752 5755 5757 5760 5764 5767 5770 5772 5774 5781 5793 5799 5801 5803 5805 5805 5807 5809 5810 5812 5812 5813 5815 5816 5818 5819 5821 5822 5823 5824 5825 5825 5826 5827 5827 5828 5828 5829 5830 5830 5831 5831 5831 5832 5831 5831 5831 5830 5830 5830 5830 5830 5829 5829 5828 5827 5825 5824 5823 5822 5820 5819 5818 5816 5815 5814 5812 5811 5810 5809
5683 5688 5691 5694 5700 5708 5712 5717 5721 5724 5727 5729 5731 5738 5744 5747 5751 5754 5758 5763 5765 5767 5770 5773 5773 5776 5786 5794 5797 5799 5801 5803 5804 5805 5806 5807 5808 5810 5811 5812 5814 5815 5817 5818 5819 5820 5821 5821 5822 5822 5823 5824 5825 5825 5826 5826 5827 5827 5827 5827 5827 5827 5826 5826 5826 5826 5825 5825 5825 5824 5823 5822 5821 5819 5818 5817 5816 5815 5813 5812 5811 5809 5808 5806 5805 5804
5677 5681 5683 5689 5696 5700 5701 5707 5715 5717 5718 5719 5724 5732 5736 5741 5749 5752 5755 5759 5761 5763 5767 5768 5768 5771 5778 5787 5792 5794 5796 5798 5799 5800 5802 5803 5804 5806 5807 5808 5810 5811 5813 5814 5815 5815 5816 5817 5817 5818 5819 5820 5820 5821 5821 5822 5822 5822 5822 5822 5822 5822 5821 5821 5821 5821 5821 5820 5820 5819 5818 5817 5816 5814 5813 5812 5811 5810 5808 5807 5806 5804 5803 5802 5801 5800
5671 5672 5674 5680 5684 5686 5689 5696 5702 5705 5709 5715 5723 5728 5732 5739 5743 5744 5748 5751 5752 5757 5761 5761 5764 5767 5772 5778 5784 5788 5791 5792 5794 5796 5798 5799 5801 5802 5803 5805 5807 5808 5809 5810 5810 5811 5811 5812 5813 5814 5815 5815 5816 5817 5817 5817 5818 5817 5817 5817 5817 5817 5817 5816 5816 5816 5816 5815 5815 5814 5813 5812 5810 5809 5808 5807 5806 5805 5804 5802 5801 5800 5798 5797 5796 5795
5664 5664 5668 5672 5671 5673 5679 5684 5692 5701 5710 5715 5719 5724 5729 5734 5735 5739 5744 5743 5746 5754 5756 5757 5762 5765 5767 5771 5775 5781 5786 5789 5791 5793 5794 5796 5797 5798 5800 5802 5803 5804 5805 5805 5806 5806 5807 5808 5808 5809 5810 5811 5812 5812 5812 5813 5813 5812 5812 5812 5812 5812 5812 5811 5811 5811 5811 5810 5810 5809 5808 5806 5805 5804 5803 5802 5801 5800 5799 5797 5796 5795 5794 5792 5791 5791
5657 5660 5666 5669 5671 5678 5685 5691 5700 5707 5709 5710 5714 5720 5724 5726 5729 5733 5733 5734 5745 5749 5746 5751 5759 5760 5763 5766 5769 5775 5781 5784 5787 5788 5790 5792 5793 5795 5796 5797 5798 5798 5799 5800 5800 5801 5802 5803 5804 5805 5806 5807 5807 5808 5808 5808 5808 5808 5808 5808 5807 5807 5807 5807 5807 5806 5806 5805 5805 5804 5802 5801 5800 5799 5798 5797 5796 5795 5794 5792 5791 5790 5789 5788 5787 5786
5652 5656 5662 5666 5673 5683 5688 5693 5701 5704 5706 5710 5714 5717 5718 5720 5721 5722 5723 5732 5741 5735 5735 5749 5756 5755 5759 5762 5764 5771 5775 5778 5781 5783 5785 5787 5789 5790 5791 5791 5792 5792 5793 5794 5794 5796 5797 5798 5799 5800 5801 5802 5803 5803 5803 5803 5803 5803 5803 5803 5803 5803 5802 5802 5802 5801 5801 5800 5800 5798 5797 5795 5794 5794 5793 5792 5791 5790 5788 5787 5786 5785 5784 5783 5782 5782
5647 5653 5659 5665 5671 5676 5680 5686 5693 5697 5701 5706 5709 5711 5714 5716 5717 5718 5724 5733 5733 5727 5737 5753 5751 5749 5755 5757 5761 5766 5767 5770 5774 5775 5778 5781 5782 5783 5784 5784 5785 5786 5787 5789 5789 5791 5793 5793 5794 5795 5796 5798 5798 5797 5797 5797 5797 5797 5797 5798 5798 5797 5797 5797 5796 5796 5795 5795 5794 5792 5791 5790 5789 5788 5787 5786 5785 5784 5783 5782 5781 5780 5779 5779 5778 5777
5643 5650 5656 5662 5667 5670 5674 5679 5684 5687 5691 5695 5698 5703 5707 5708 5712 5716 5722 5729 5727 5724 5737 5746 5742 5744 5752 5755 5759 5761 5759 5762 5766 5767 5771 5772 5773 5776 5777 5779 5781 5781 5782 5784 5784 5786 5787 5787 5788 5789 5791 5792 5791 5791 5791 5791 5791 5792 5792 5792 5792 5792 5791 5791 5790 5790 5789 5789 5788 5786 5785 5784 5783 5782 5781 5780 5779 5779 5778 5777 5776 5775 5774 5774 5773 5772
5639 5644 5650 5658 5662 5663 5668 5674 5677 5680 5683 5686 5690 5694 5697 5699 5703 5707 5712 5718 5717 5718 5731 5738 5734 5739 5749 5751 5754 5754 5753 5757 5758 5759 5762 5763 5765 5770 5773 5774 5776 5777 5777 5778 5778 5780 5781 5781 5782 5784 5785 5785 5784 5784 5785 5785 5786 5787 5786 5786 5786 5786 5785 5785 5784 5784 5783 5783 5782 5780 5779 5778 5777 5776 5775 5775 5774 5773 5773 5772 5771 5770 5769 5768 5768 5766
5635 5638 5644 5652 5652 5655 5664 5668 5669 5674 5677 5676 5679 5684 5688 5691 5695 5701 5707 5712 5712 5716 5727 5728 5725 5735 5746 5747 5748 5749 5749 5751 5751 5753 5755 5756 5759 5762 5764 5768 5770 5771 5772 5772 5772 5774 5775 5775 5776 5778 5778 5778 5778 5779 5780 5780 5781 5781 5781 5780 5780 5780 5779 5778 5778 5777 5777 5777 5775 5774 5773 5771 5771 5770 5770 5769 5769 5768 5767 5766 5766 5765 5764 5763 5762 5761
5628 5631 5638 5644 5646 5653 5660 5661 5665 5669 5664 5660 5668 5680 5685 5689 5695 5700 5704 5708 5708 5711 5716 5718 5724 5737 5741 5739 5741 5743 5742 5744 5746 5747 5749 5750 5751 5751 5753 5759 5763 5765 5766 5766 5767 5768 5768 5769 5770 5771 5771 5771 5772 5773 5773 5774 5774 5774 5774 5774 5774 5774 5773 5772 5772 5771 5771 5770 5769 5768 5766 5765 5765 5765 5764 5764 5763 5763 5762 5761 5760 5759 5758 5758 5757 5755
5623 5627 5634 5640 5644 5649 5652 5656 5660 5654 5645 5654 5674 5685 5685 5688 5692 5694 5697 5702 5703 5705 5709 5715 5724 5731 5729 5729 5735 5736 5736 5738 5739 5740 5742 5744 5745 5744 5746 5750 5753 5757 5759 5759 5760 5761 5761 5763 5764 5763 5764 5765 5766 5767 5767 5767 5768 5767 5767 5767 5767 5767 5766 5765 5765 5765 5764 5764 5762 5761 5760 5759 5759 5759 5759 5758 5758 5757 5756 5755 5755 5754 5753 5752 5751 5750
5619 5624 5629 5635 5639 5642 5646 5650 5645 5636 5644 5666 5679 5678 5677 5681 5685 5687 5691 5695 5698 5700 5705 5710 5717 5721 5721 5724 5728 5728 5730 5732 5731 5733 5737 5739 5738 5739 5740 5743 5746 5748 5751 5752 5752 5753 5754 5756 5755 5756 5758 5759 5759 5760 5761 5761 5761 5760 5761 5761 5761 5760 5759 5758 5758 5758 5758 5757 5756 5755 5753 5753 5753 5753 5753 5753 5752 5751 5750 5749 5749 5748 5747 5747 5745 5744
5615 5619 5624 5629 5631 5633 5637 5636 5632 5639 5656 5666 5663 5663 5668 5674 5679 5681 5682 5688 5693 5696 5698 5703 5710 5713 5714 5718 5721 5720 5722 5723 5723 5727 5732 5732 5732 5734 5735 5737 5739 5741 5744 5744 5743 5745 5746 5747 5748 5750 5752 5752 5752 5753 5754 5754 5754 5754 5754 5754 5754 5753 5752 5752 5752 5751 5751 5751 5750 5748 5747 5747 5748 5747 5747 5747 5746 5745 5745 5744 5743 5742 5741 5741 5740 5739
5609 5613 5618 5621 5622 5626 5628 5629 5635 5645 5650 5648 5650 5661 5668 5673 5678 5679 5678 5685 5691 5691 5691 5697 5705 5708 5711 5715 5714 5711 5714 5715 5716 5724 5729 5726 5726 5729 5729 5730 5731 5733 5734 5735 5736 5738 5739 5739 5741 5743 5744 5744 5745 5746 5747 5747 5747 5748 5748 5747 5747 5747 5745 5745 5745 5745 5745 5744 5743 5742 5742 5742 5742 5742 5741 5741 5741 5740 5739 5738 5737 5737 5736 5735 5734 5733
5603 5608 5612 5615 5617 5621 5622 5626 5631 5632 5634 5643 5656 5665 5668 5669 5672 5671 5670 5675 5681 5684 5688 5695 5700 5704 5708 5708 5703 5703 5706 5705 5709 5722 5725 5719 5720 5722 5721 5723 5725 5723 5723 5725 5729 5731 5731 5732 5733 5735 5735 5736 5737 5738 5739 5739 5740 5740 5740 5739 5740 5740 5739 5738 5739 5739 5738 5738 5737 5737 5737 5736 5736 5736 5736 5736 5735 5734 5733 5732 5732 5731 5730 5729 5728 5726
5598 5603 5608 5610 5611 5613 5615 5618 5620 5623 5635 5651 5659 5660 5659 5659 5663 5665 5661 5665 5677 5684 5686 5690 5695 5699 5701 5698 5695 5696 5698 5698 5708 5720 5718 5712 5714 5713 5711 5715 5717 5715 5714 5717 5720 5723 5724 5724 5725 5726 5727 5729 5730 5731 5731 5731 5732 5732 5732 5732 5733 5733 5732 5733 5734 5733 5732 5732 5732 5732 5732 5730 5730 5731 5731 5730 5729 5729 5728 5727 5726 5725 5724 5723 5722 5720
5592 5596 5600 5601 5602 5606 5610 5613 5615 5624 5638 5648 5649 5649 5649 5653 5659 5656 5651 5663 5681 5685 5682 5686 5691 5693 5692 5689 5688 5690 5692 5697 5706 5708 5702 5702 5703 5701 5703 5707 5708 5707 5709 5710 5712 5715 5716 5716 5717 5718 5720 5722 5724 5723 5723 5723 5724 5724 5724 5725 5725 5725 5727 5728 5728 5728 5727 5727 5727 5727 5725 5724 5725 5725 5725 5724 5723 5723 5722 5721 5720 5718 5717 5716 5715 5714
5585 5589 5592 5594 5597 5601 5605 5608 5613 5623 5635 5640 5641 5642 5643 5646 5646 5643 5650 5670 5680 5677 5677 5682 5683 5682 5682 5681 5681 5685 5687 5690 5693 5691 5688 5691 5693 5693 5698 5701 5700 5701 5703 5704 5705 5706 5707 5709 5710 5711 5713 5715 5715 5715 5714 5715 5715 5715 5716 5717 5718 5719 5721 5722 5723 5722 5722 5721 5721 5720 5719 5719 5719 5719 5718 5718 5717 5716 5715 5714 5713 5712 5711 5710 5709 5708
5580 5584 5586 5590 5593 5596 5601 5605 5610 5619 5628 5632 5633 5634 5635 5636 5636 5643 5658 5669 5668 5667 5673 5674 5672 5673 5674 5672 5674 5678 5680 5680 5682 5682 5683 5685 5686 5688 5691 5694 5695 5696 5697 5697 5699 5699 5701 5703 5703 5704 5706 5707 5706 5706 5706 5707 5707 5708 5708 5710 5712 5713 5715 5716 5716 5716 5715 5715 5714 5713 5712 5712 5712 5712 5711 5711 5710 5709 5708 5708 5706 5705 5705 5704 5703 5702
5576 5579 5581 5585 5588 5591 5596 5598 5602 5613 5624 5626 5624 5625 5629 5632 5637 5646 5655 5656 5657 5662 5664 5663 5664 5665 5664 5665 5668 5671 5672 5674 5675 5677 5679 5680 5681 5681 5683 5686 5689 5690 5690 5691 5692 5693 5695 5696 5696 5696 5697 5697 5697 5698 5698 5699 5701 5701 5701 5703 5706 5707 5708 5708 5708 5708 5708 5707 5707 5706 5706 5705 5705 5705 5704 5704 5703 5702 5702 5701 5700 5699 5698 5697 5696 5695
5569 5572 5575 5579 5583 5585 5588 5592 5600 5613 5620 5619 5618 5620 5624 5629 5635 5640 5643 5646 5651 5653 5652 5655 5658 5655 5654 5660 5662 5663 5666 5669 5670 5672 5674 5674 5674 5675 5676 5679 5681 5682 5684 5684 5685 5686 5687 5688 5689 5689 5689 5689 5690 5691 5692 5693 5694 5694 5695 5697 5699 5700 5700 5700 5700 5700 5700 5700 5699 5699 5699 5699 5698 5698 5697 5697 5696 5695 5695 5694 5693 5692 5691 5690 5689 5688
5562 5565 5568 5573 5577 5579 5584 5592 5602 5610 5612 5612 5614 5615 5617 5622 5627 5631 5634 5637 5640 5642 5645 5649 5649 5647 5648 5653 5655 5658 5662 5663 5665 5668 5669 5668 5668 5669 5670 5672 5673 5675 5677 5677 5677 5678 5678 5680 5683 5683 5684 5685 5685 5685 5686 5687 5687 5687 5689 5689 5690 5691 5693 5693 5693 5694 5693 5693 5692 5692 5692 5691 5691 5690 5690 5689 5688 5688 5687 5687 5686 5685 5684 5683 5682 5681
5556 5559 5562 5567 5571 5575 5582 5591 5599 5604 5606 5607 5609 5609 5610 5615 5621 5623 5626 5629 5631 5635 5639 5642 5643 5643 5643 5645 5650 5655 5656 5657 5660 5663 5662 5662 5661 5661 5663 5666 5666 5667 5669 5670 5670 5670 5671 5674 5677 5678 5679 5680 5679 5679 5680 5679 5680 5681 5682 5682 5682 5683 5685 5686 5686 5687 5686 5686 5685 5685 5684 5684 5683 5683 5682 5682 5681 5681 5680 5680 5679 5678 5677 5676 5675 5674
5551 5555 5559 5562 5566 5571 5580 5589 5595 5599 5599 5599 5601 5602 5604 5609 5613 5615 5619 5622 5624 5627 5631 5634 5636 5637 5636 5639 5644 5648 5649 5652 5654 5654 5655 5656 5655 5654 5656 5658 5659 5660 5661 5662 5664 5665 5666 5668 5670 5671 5673 5673 5672 5673 5673 5672 5673 5674 5674 5674 5675 5675 5676 5677 5678 5678 5679 5679 5678 5678 5677 5677 5676 5676 5675 5674 5674 5674 5673 5673 5672 5671 5670 5669 5667 5666
5545 5549 5553 5557 5563 5571 5579 5584 5587 5588 5589 5591 5594 5596 5598 5602 5604 5606 5609 5612 5614 5617 5622 5625 5628 5631 5632 5634 5636 5638 5642 5645 5646 5647 5648 5649 5648 5649 5650 5651 5653 5655 5655 5657 5658 5659 5660 5661 5662 5663 5664 5665 5666 5666 5666 5666 5667 5666 5667 5667 5667 5668 5669 5669 5669 5670 5670 5670 5670 5670 5669 5669 5669 5668 5668 5667 5667 5666 5666 5665 5664 5663 5662 5661 5659 5657
5537 5542 5549 5556 5562 5569 5575 5578 5579 5580 5583 5588 5590 5591 5592 5595 5596 5598 5601 5605 5609 5613 5616 5620 5623 5626 5627 5628 5629 5631 5634 5636 5639 5641 5642 5643 5644 5644 5644 5646 5648 5649 5650 5651 5652 5652 5653 5654 5654 5655 5656 5657 5659 5659 5660 5660 5660 5660 5661 5660 5660 5661 5661 5662 5662 5662 5661 5661 5662 5661 5661 5661 5661 5660 5660 5660 5659 5659 5658 5657 5656 5655 5654 5652 5651 5649
5533 5541 5548 5553 5558 5567 5574 5575 5574 5576 5580 5584 5584 5584 5586 5587 5589 5593 5598 5603 5606 5608 5609 5612 5616 5618 5620 5621 5622 5624 5626 5628 5630 5633 5635 5637 5638 5638 5639 5641 5642 5642 5644 5645 5645 5646 5647 5647 5647 5649 5649 5650 5652 5653 5654 5654 5653 5654 5654 5653 5653 5654 5654 5654 5655 5654 5654 5654 5654 5653 5654 5654 5653 5653 5653 5652 5651 5651 5650 5649 5648 5647 5645 5643 5642 5640
5531 5537 5541 5545 5554 5565 5569 5566 5565 5569 5575 5577 5575 5576 5578 5579 5582 5589 5593 5595 5597 5598 5599 5603 5608 5610 5612 5614 5614 5616 5620 5621 5621 5624 5628 5631 5631 5631 5633 5633 5634 5636 5637 5637 5639 5640 5640 5640 5641 5642 5642 5643 5644 5645 5646 5647 5646 5647 5646 5646 5646 5647 5647 5647 5647 5647 5647 5647 5647 5647 5647 5646 5646 5645 5645 5644 5643 5643 5642 5641 5639 5638 5636 5635 5633 5631